Regional Weather Roundup
Issued by NWS

Home | Current Version | Previous Version | Graphics & Text | Print | Product List | Glossary On
Versions: 1 2 3 4 5 6 7 8 9 10 11 12 13 14 15 16 17 18 19 20 21 22 23 24 25 26 27 28 29 30 31 32 33 34 35 36 37 38 39 40 41 42 43 44 45 46 47 48 49 50
000
ASUS43 KDMX 190507
RWRIA

WEATHER ROUNDUP FOR IOWA
NATIONAL WEATHER SERVICE DES MOINES IA
1100 PM CST THU DEC 18 2014

NOTE: "FAIR" INDICATES FEW OR NO CLOUDS BELOW 12,000 FEET WITH NO
SIGNIFICANT WEATHER AND/OR OBSTRUCTIONS TO VISIBILITY.

* - THESE STATIONS ARE NOT NWS STATIONS...THUS NOT UNDER NWS
QUALITY CONTROL.  THEY ALSO DO NOT REPORT WEATHER SUCH
AS PRECIPITATION OR FOG.

IAZ001>003-012>014-020>022-031>034-043>046-190600-
   NORTHWEST IOWA

CITY           SKY/WX    TMP DP  RH WIND       PRES   REMARKS
CARROLL *      CLOUDY    28  27  93 S6        30.24R WCI  22
CHEROKEE *     CLOUDY    28  28 100 S3        30.23R
DENISON *      CLOUDY    30  28  93 CALM      30.22R
LE MARS *      CLOUDY    30  27  86 S7        30.22S WCI  23
ORANGE CITY *  CLOUDY    28  25  86 S5        30.20R WCI  23
SHELDON *      CLOUDY    27  27 100 S8        30.19S WCI  18
SIOUX CITY     CLOUDY    30  26  85 S6        30.23R WCI  24
SPENCER        CLOUDY    28  23  81 S8        30.21S WCI  20
STORM LAKE *   CLOUDY    27  27 100 S8        30.22R WCI  18
$$

IAZ055>058-069>071-079>083-090>094-190600-
   SOUTHWEST IOWA

CITY           SKY/WX    TMP DP  RH WIND       PRES   REMARKS
ATLANTIC *     CLOUDY    30  28  93 S5        30.24S WCI  25
AUDUBON *      CLEAR     28  23  80 S5        30.24S WCI  23
CLARINDA *     CLOUDY    30  28  93 S3        30.28R
COUNCIL BLFS * CLOUDY    30  30 100 S6        30.23R WCI  24
CRESTON *      CLOUDY    28  28 100 SE7       30.25R WCI  21
HARLAN  *      CLOUDY    30  30 100 S6        30.27R WCI  24
LAMONI         CLOUDY    28  25  88 CALM      30.26R
RED OAK *      CLOUDY    30  28  93 S7        30.26R WCI  23
SHENANDOAH *   CLOUDY    30  28  93 S3        30.27S
$$

IAZ047>049-059>061-072>074-084-190600-
   CENTRAL IOWA

CITY           SKY/WX    TMP DP  RH WIND       PRES   REMARKS
AMES           CLOUDY    26  20  77 SE5       30.27R WCI  20
ANKENY *       CLOUDY    27  23  86 SE5       30.28R WCI  21
CHARITON *     CLOUDY    28  27  93 SE5       30.27R FOG     WCI  23
DES MOINES     MOCLDY    28  22  78 SE6       30.27S WCI  22
GRINNELL*      CLOUDY    25  23  93 E3        30.28S
KNOXVILLE *    CLOUDY    27  23  86 SE3       30.27R
MARSHALLTOWN   CLOUDY    23  20  88 E5        30.26F WCI  17
PELLA *        CLOUDY    27  23  87 CALM      30.30R
PERRY *        CLOUDY    28  27  93 SE5       30.26R WCI  23
$$

IAZ004>006-015-016-023>025-035-036-190600-
   NORTH CENTRAL IOWA

CITY           SKY/WX    TMP DP  RH WIND       PRES   REMARKS
ALGONA *       CLOUDY    27  23  86 SE9       30.24S WCI  17
CLARION *      CLOUDY    25  23  93 SE7       30.26R WCI  17
ESTHERVILLE    CLOUDY    24  21  88 S9        30.21S WCI  14
FORT DODGE *   CLOUDY    27  19  74 SE3       30.26R
MASON CITY     CLOUDY    23  18  81 S6        30.27R WCI  16
FOREST CITY *  CLOUDY    25  19  80 S6        30.24S WCI  18
IOWA FALLS *   CLOUDY    25  21  86 SE5       30.27S WCI  19
$$

IAZ007>011-017>019-026>030-037>042-050>054-066-190600-
   NORTHEAST IOWA

CITY           SKY/WX    TMP DP  RH WIND       PRES   REMARKS
CEDAR RAPIDS   CLOUDY    24  20  84 NW6       30.29R WCI  17
CHARLES CITY * CLOUDY    23  19  86 CALM      30.27R
CLINTON *        N/A     18  16  93 CALM      30.32R
DECORAH *      CLOUDY    23  18  80 CALM      30.26R
DUBUQUE        CLOUDY    23  19  85 CALM      30.27R
MONTICELLO *   CLEAR     16  16 100 CALM      30.29R
OELWEIN *      CLOUDY    21  18  86 CALM      30.28R
WATERLOO       CLOUDY    24  18  77 CALM      30.28S
$$

IAZ064-065-067-068-078-190600-
   EAST CENTRAL IOWA

CITY           SKY/WX    TMP DP  RH WIND       PRES   REMARKS
DAVENPORT      CLEAR     18  14  84 CALM      30.30R
IOWA CITY      CLOUDY    26  19  74 CALM      30.31S
MT. PLEASANT * CLOUDY    27  23  86 CALM      30.30R
MUSCATINE *    CLOUDY    28  19  69 CALM      30.32R
QUAD CITIES    CLEAR     21  17  84 CALM      30.30R
$$

IAZ062-063-075>077-085>089-095>099-190600-
   SOUTHEAST IOWA

CITY           SKY/WX    TMP DP  RH WIND       PRES   REMARKS
BURLINGTON     CLOUDY    28  23  81 CALM      30.28F
FAIRFIELD *    CLOUDY    27  23  86 CALM      30.29S
FORT MADISON * CLOUDY    28  25  86 CALM      30.30R
KEOKUK *       CLOUDY    28  25  86 CALM      30.29S
OSKALOOSA *    CLOUDY    27  23  86 CALM      30.29R
CENTERVILLE *  CLOUDY    27  27 100 CALM      30.29R
OTTUMWA        CLOUDY    26  22  84 CALM      30.29R
WASHINGTON *   CLOUDY    27  25  93 CALM      30.29S
$$

ABBREVIATIONS USED IN REMARKS
   TC - TEMPERATURES IN CELSIUS
  WCI - WIND CHILL INDEX
   HX - HEAT INDEX
  VSB - VISIBILITY
$$



USA.gov is the U.S. government's official web portal to all federal, state and local government web resources and services.